Starlink 1560

operational
NORAD ID: 46036 Int'l Des: 2020-055 Owner: SPXS Country: US Constellation: starlink
LEOCIRCULARSTARLINK_TYPE

About Starlink 1560

Description loading...

Live Position

Loading 3D Globe...

Upcoming Passes

Altitude History

Altitude vs Time

uPlot chart will show altitude changes over time

Two-Line Element Set

1 46036U 20055K 25304.82055002 .00006302 00000-0 44162-3 0 9998
2 46036 53.0548 345.1355 0001591 114.6539 245.4616 15.06395042289470
Epoch: Oct 31, 2025 • Age: 16 hours

Current Status

Altitude 550.4 km
Velocity 7.59 km/s
Sub-Earth Point 43.07°N, 105.65°W
Launch Date Aug 7, 2020
Age 5.2 years
Type internet

Technical Details

Classification Payload
Mass 260.00 kg
Dry Mass 248.00 kg
Total Mass 260.00 kg
Length 0.20 m
Diameter 2.80 m
Span 9.00 m
Shape Box + pan
Manufacturer SPXS
Bus Type Starlink
Phase Status In Orbit
Owner/State SPXS/US

Large Constellations

Loading constellations...